Regional Weather Roundup
Issued by NWS

Home | Current Version | Previous Version | Text Only | Print | Product List | Glossary On
Versions: 1 2 3 4 5 6 7 8 9 10 11 12 13 14 15 16 17 18 19 20 21 22 23 24 25 26 27 28 29 30 31 32 33 34 35 36 37 38 39 40 41 42 43 44 45 46 47 48 49 50
000
ASUS46 KSTO 251115
RWRCA

NORTHERN AND CENTRAL CA REGIONAL WEATHER ROUNDUP
NATIONAL WEATHER SERVICE SACRAMENTO CA
400 AM PDT SUN JUN 25 2017

NOTE: FAIR INDICATES FEW OR NO CLOUDS BELOW 12,000 FEET WITH NO
SIGNIFICANT WEATHER AND/OR OBSTRUCTIONS TO VISIBILITY.

CAZ001-003-251200-
NORTHWEST AREA

CITY           SKY/WX    TMP DP  RH WIND       PRES   REMARKS
CRESCENT CITY  FOG       52  52 100 S7        29.96R VSB 1
UKIAH          CLEAR     62  56  80 SE3       29.89F
$$

CAZ006-505>513-251200-
BAY AREA

CITY           SKY/WX    TMP DP  RH WIND       PRES   REMARKS
SANTA ROSA     CLOUDY    56  53  90 SE3       29.91S
SAN RAFAEL     N/A       56  MM  MM MISG
NAPA           CLOUDY    59  55  87 W14       29.92R
CONCORD        CLEAR     60  54  80 S14       29.92R
OAKLAND CITY   N/A      MM  MM  MM MISG
OAKLAND        CLOUDY    60  55  83 W12       29.96R
SAN FRAN CITY  N/A       56  MM  99 MISG
SAN FRAN ARPT  CLOUDY    57  53  86 W10       29.95S
LIVERMORE      PTCLDY    56  54  93 W8        29.94R
HAYWARD        CLOUDY    60  52  74 W12       29.95S
REDWOOD CITY   N/A       61  MM  81 MISG
MOFFETT ARPT   CLOUDY    61  57  87 NE7       29.96R
SAN JOSE ARPT  CLOUDY    61  57  87 W5        29.95R
$$
CAZ034-037-514>518-251200-
CENTRAL COAST

CITY           SKY/WX    TMP DP  RH WIND       PRES   REMARKS
WATSONVILLE    CLOUDY    56  56 100 E3        29.95S
SALINAS        CLOUDY    56  55  97 W6        29.96S
MONTEREY       CLOUDY    55  55 100 W6        29.96F FOG
SAN LUIS OBISP CLOUDY    57  55  93 NW6       29.93S
SANTA MARIA    CLOUDY    56  56 100 NW6       29.94S FOG
$$
CAZ015-016-251200-
NORTHERN SACRAMENTO VALLEY

CITY           SKY/WX    TMP DP  RH WIND       PRES   REMARKS
REDDING        PTCLDY    81  66  60 NW3       29.82S
RED BLUFF      PTCLDY    79  66  64 W5        29.82F
OROVILLE       MOCLDY    76  60  57 SE5       29.85R
$$
CAZ016>018-251200-
SOUTHERN SACRAMENTO VALLEY

CITY           SKY/WX    TMP DP  RH WIND       PRES   REMARKS
AUBURN         CLEAR     77  61  57 E7        29.89S
BEALE AFB      PTCLDY    68  58  72 S5        29.82R
LINCOLN        FAIR      68  52  56 S10       29.83R
MARYSVILLE     PTCLDY    70  56  61 S6        29.83S
SAC INTL ARPT  PTCLDY    63  56  78 S15       29.83R
MATHER AIRPORT NOT AVBL
DOWNTOWN SAC   N/A       63  MM  MM MISG
SAC EXEC ARPT  CLEAR     61  56  83 S5        29.85R
VACAVILLE      CLEAR     63  56  78 SW12      29.84R
TRAVIS AFB     CLEAR     57  54  90 SW29G37   29.82S
$$
CAZ019>021-251200-
SAN JOAQUIN VALLEY

CITY           SKY/WX    TMP DP  RH WIND       PRES   REMARKS
STOCKTON       CLEAR     65  55  70 W12       29.86S
MODESTO        CLEAR     69  56  62 N9        29.86R
MERCED         CLEAR     71  56  58 NW10      29.85R
LEMOORE        CLEAR     74  57  55 NW12      29.85R
FRESNO         CLEAR     77  66  68 W8        29.85R
HANFORD        CLEAR     77  64  64 W6        29.84S
PORTERVILLE      N/A     75  59  57 S6        29.86R
BAKERSFIELD    CLEAR     77  57  50 CALM      29.84S
$$
CAZ011-012-071-251200-
NORTHERN MOUNTAINS

CITY           SKY/WX    TMP DP  RH WIND       PRES   REMARKS
YREKA          CLEAR     61  45  55 CALM      29.99F
MOUNT SHASTA   CLEAR     61  52  72 E3        30.05F
ALTURAS        CLEAR     56  43  61 NW3       30.12F
$$
CAZ011-012-071-251200-
SIERRA NEVADA MTNS

CITY           SKY/WX    TMP DP  RH WIND       PRES   REMARKS
BLUE CANYON    PTCLDY    74  36  25 CALM      30.18F
TRUCKEE        MOCLDY    54  50  87 CALM      30.25S
TAHOE VLY ARPT PTCLDY    55  42  61 S3        30.26F
MAMMOTH LAKES  FAIR      50  35  56 CALM      30.33S
$$



USA.gov is the U.S. government's official web portal to all federal, state and local government web resources and services.